Hourly Weather Ryabichev

Today, 16 April, Friday

Time Temperature Precipitation Wind Pressure Humidity
00:00 +10°C° 0 mm 2 mps 761 mmHg 84%
01:00 +10°C° 0 mm 2 mps 761 mmHg 86%
02:00 +9°C° 0 mm 2 mps 761 mmHg 88%
03:00 +9°C° 0 mm 2 mps 761 mmHg 89%
04:00 +9°C° 0 mm 2 mps 761 mmHg 90%
05:00 +9°C° 0 mm 2 mps 761 mmHg 91%
06:00 +9°C° 0 mm 2 mps 762 mmHg 92%
07:00 +10°C° 0 mm 2 mps 762 mmHg 83%
08:00 +13°C° 0 mm 2 mps 762 mmHg 74%
09:00 +15°C° 0 mm 2 mps 762 mmHg 64%
10:00 +16°C° 0 mm 2 mps 762 mmHg 59%
11:00 +17°C° 0 mm 2 mps 762 mmHg 53%
12:00 +18°C° 0 mm 2 mps 762 mmHg 47%
13:00 +19°C° 0 mm 2 mps 762 mmHg 46%
14:00 +19°C° 0 mm 2 mps 761 mmHg 44%
15:00 +19°C° 0 mm 2 mps 761 mmHg 43%
16:00 +18°C° 0.1 mm 3 mps 761 mmHg 55%
17:00 +15°C° 0.1 mm 4 mps 761 mmHg 66%
18:00 +13°C° 0.1 mm 5 mps 761 mmHg 78%
19:00 +12°C° 2.2 mm 3 mps 762 mmHg 82%
20:00 +13°C° 2.2 mm 2 mps 762 mmHg 86%
21:00 +12°C° 2.2 mm 1 mps 763 mmHg 91%
22:00 +12°C° 0.3 mm 2 mps 763 mmHg 91%
23:00 +12°C° 0.3 mm 2 mps 762 mmHg 92%

Tomorrow, 17 April, Saturday

Time Temperature Precipitation Wind Pressure Humidity
00:00 +12°C° 0.3 mm 2 mps 762 mmHg 92%
01:00 +10°C° 0.1 mm 2 mps 762 mmHg 93%
02:00 +10°C° 0.1 mm 2 mps 762 mmHg 94%
03:00 +10°C° 0.1 mm 2 mps 762 mmHg 95%
04:00 +10°C° 0.6 mm 2 mps 762 mmHg 95%
05:00 +10°C° 0.6 mm 2 mps 762 mmHg 95%
06:00 +10°C° 0.6 mm 2 mps 763 mmHg 95%
07:00 +10°C° 0.4 mm 2 mps 763 mmHg 92%
08:00 +12°C° 0.4 mm 2 mps 763 mmHg 89%
09:00 +12°C° 0.4 mm 2 mps 763 mmHg 86%
10:00 +12°C° 0.2 mm 3 mps 763 mmHg 78%
11:00 +13°C° 0.2 mm 3 mps 763 mmHg 70%
12:00 +14°C° 0.2 mm 4 mps 763 mmHg 61%
13:00 +15°C° 0 mm 4 mps 763 mmHg 56%
14:00 +15°C° 0 mm 4 mps 763 mmHg 50%
15:00 +17°C° 0 mm 4 mps 763 mmHg 45%
16:00 +15°C° 0 mm 4 mps 763 mmHg 49%
17:00 +14°C° 0 mm 4 mps 763 mmHg 54%
18:00 +13°C° 0 mm 3 mps 764 mmHg 58%
19:00 +12°C° 0 mm 3 mps 764 mmHg 60%
20:00 +11°C° 0 mm 3 mps 764 mmHg 61%
21:00 +9°C° 0 mm 3 mps 764 mmHg 62%
22:00 +9°C° 0 mm 3 mps 764 mmHg 66%
23:00 +8°C° 0 mm 2 mps 764 mmHg 70%

Day after tomorrow, 18 April, Sunday

Time Temperature Precipitation Wind Pressure Humidity
00:00 +8°C° 0 mm 2 mps 764 mmHg 73%
01:00 +7°C° 0 mm 2 mps 764 mmHg 75%
02:00 +7°C° 0 mm 2 mps 764 mmHg 77%
03:00 +7°C° 0 mm 2 mps 764 mmHg 78%
04:00 +7°C° 0 mm 2 mps 764 mmHg 79%
05:00 +7°C° 0 mm 2 mps 764 mmHg 79%
06:00 +7°C° 0 mm 2 mps 764 mmHg 79%
07:00 +8°C° 0 mm 2 mps 764 mmHg 74%
08:00 +10°C° 0 mm 2 mps 764 mmHg 69%
09:00 +12°C° 0 mm 2 mps 763 mmHg 64%
10:00 +14°C° 0 mm 2 mps 763 mmHg 60%
11:00 +15°C° 0 mm 2 mps 763 mmHg 56%
12:00 +16°C° 0 mm 2 mps 762 mmHg 52%
13:00 +16°C° 0 mm 2 mps 762 mmHg 52%
14:00 +16°C° 0 mm 2 mps 762 mmHg 53%
15:00 +16°C° 0 mm 2 mps 761 mmHg 53%
16:00 +15°C° 0 mm 2 mps 762 mmHg 60%
17:00 +14°C° 0 mm 2 mps 762 mmHg 68%
18:00 +13°C° 0 mm 2 mps 762 mmHg 76%
19:00 +13°C° 0 mm 2 mps 762 mmHg 78%
20:00 +12°C° 0 mm 2 mps 762 mmHg 80%
21:00 +12°C° 0 mm 1 mps 762 mmHg 83%
22:00 +12°C° 0 mm 1 mps 762 mmHg 84%
23:00 +12°C° 0 mm 1 mps 761 mmHg 85%

19 April, Monday

Time Temperature Precipitation Wind Pressure Humidity
00:00 +12°C° 0 mm 2 mps 761 mmHg 86%
01:00 +12°C° 0.1 mm 2 mps 761 mmHg 88%
02:00 +12°C° 0.1 mm 2 mps 761 mmHg 90%
03:00 +12°C° 0.1 mm 2 mps 761 mmHg 92%
04:00 +12°C° 0 mm 2 mps 760 mmHg 93%
05:00 +12°C° 0 mm 2 mps 760 mmHg 94%
06:00 +11°C° 0 mm 3 mps 760 mmHg 95%
07:00 +11°C° 0 mm 3 mps 760 mmHg 94%
08:00 +12°C° 0 mm 3 mps 760 mmHg 94%
09:00 +12°C° 0 mm 3 mps 760 mmHg 93%
10:00 +13°C° 0 mm 3 mps 760 mmHg 90%
11:00 +14°C° 0 mm 3 mps 760 mmHg 87%
12:00 +16°C° 0 mm 2 mps 760 mmHg 84%
13:00 +15°C° 0.1 mm 2 mps 759 mmHg 86%
14:00 +15°C° 0.1 mm 2 mps 759 mmHg 88%
15:00 +15°C° 0.1 mm 2 mps 759 mmHg 90%
16:00 +15°C° 0.1 mm 2 mps 759 mmHg 90%
17:00 +15°C° 0.1 mm 2 mps 758 mmHg 91%
18:00 +15°C° 0.1 mm 2 mps 758 mmHg 91%
19:00 +15°C° 0 mm 2 mps 758 mmHg 93%
20:00 +13°C° 0 mm 3 mps 758 mmHg 94%
21:00 +13°C° 0 mm 3 mps 757 mmHg 95%
22:00 +13°C° 0.4 mm 3 mps 757 mmHg 95%
23:00 +13°C° 0.4 mm 4 mps 756 mmHg 94%

20 April, Tuesday

Time Temperature Precipitation Wind Pressure Humidity
00:00 +13°C° 0.4 mm 5 mps 756 mmHg 94%
01:00 +14°C° 0.9 mm 6 mps 755 mmHg 93%
02:00 +14°C° 0.9 mm 7 mps 754 mmHg 92%
03:00 +13°C° 0.9 mm 9 mps 753 mmHg 91%
04:00 +13°C° 0 mm 9 mps 753 mmHg 87%
05:00 +13°C° 0 mm 10 mps 752 mmHg 82%
06:00 +13°C° 0 mm 10 mps 752 mmHg 78%
07:00 +13°C° 0.1 mm 11 mps 752 mmHg 76%
08:00 +13°C° 0.1 mm 11 mps 752 mmHg 74%
09:00 +13°C° 0.1 mm 12 mps 752 mmHg 72%
10:00 +14°C° 0.1 mm 11 mps 752 mmHg 74%
11:00 +14°C° 0.1 mm 10 mps 752 mmHg 75%
12:00 +16°C° 0.1 mm 9 mps 753 mmHg 76%
13:00 +15°C° 2.1 mm 7 mps 753 mmHg 82%
14:00 +13°C° 2.1 mm 5 mps 754 mmHg 87%
15:00 +12°C° 2.1 mm 4 mps 755 mmHg 93%
16:00 +11°C° 2.8 mm 4 mps 755 mmHg 92%
17:00 +11°C° 2.8 mm 4 mps 756 mmHg 91%
18:00 +9°C° 2.8 mm 5 mps 756 mmHg 90%
19:00 +9°C° 0.5 mm 5 mps 756 mmHg 91%
20:00 +9°C° 0.5 mm 5 mps 756 mmHg 91%
21:00 +9°C° 0.5 mm 5 mps 757 mmHg 92%
22:00 +9°C° 0.3 mm 6 mps 757 mmHg 91%
23:00 +9°C° 0.3 mm 7 mps 757 mmHg 91%

21 April, Wednesday

Time Temperature Precipitation Wind Pressure Humidity
00:00 +9°C° 0.3 mm 7 mps 758 mmHg 91%
01:00 +9°C° 0.1 mm 7 mps 758 mmHg 89%
02:00 +8°C° 0.1 mm 6 mps 758 mmHg 86%
03:00 +8°C° 0.1 mm 6 mps 758 mmHg 84%
04:00 +8°C° 0 mm 6 mps 759 mmHg 85%
05:00 +8°C° 0 mm 6 mps 759 mmHg 86%
06:00 +8°C° 0 mm 6 mps 759 mmHg 87%
07:00 +9°C° 0.1 mm 6 mps 760 mmHg 82%
08:00 +10°C° 0.1 mm 6 mps 760 mmHg 77%
09:00 +11°C° 0.1 mm 7 mps 761 mmHg 72%
10:00 +12°C° 0.1 mm 7 mps 761 mmHg 67%
11:00 +14°C° 0.1 mm 6 mps 761 mmHg 61%
12:00 +15°C° 0.1 mm 6 mps 761 mmHg 56%
13:00 +15°C° 0 mm 5 mps 761 mmHg 56%
14:00 +15°C° 0 mm 5 mps 762 mmHg 55%
15:00 +17°C° 0 mm 4 mps 762 mmHg 55%
16:00 +15°C° 0.1 mm 4 mps 762 mmHg 60%
17:00 +16°C° 0.1 mm 3 mps 762 mmHg 64%
18:00 +14°C° 0.1 mm 3 mps 762 mmHg 69%
19:00 +13°C° 0 mm 3 mps 763 mmHg 73%
20:00 +13°C° 0 mm 2 mps 763 mmHg 77%
21:00 +12°C° 0 mm 2 mps 764 mmHg 81%
22:00 +12°C° 0 mm 2 mps 764 mmHg 83%
23:00 +10°C° 0 mm 2 mps 764 mmHg 84%
Show more